Location: Bush Observatory
(40.2653°N, 94.3194°W)
Time: 02:00:39
(UTC-05:00)

Vanguard 1 - Visible Passes

Search period start: 03 September 2014 00:00
Search period end: 13 September 2014 00:00
Orbit: 650 x 3838 km, 34.2° (Epoch: 30 August)

Date Brightness Start Highest point End Pass type
(mag) Time Alt. Az. Time Alt. Az. Time Alt. Az.
03 Sep 12.3 00:07:16 10° WSW 00:27:04 64° SSW 00:27:04 64° SSW visible
03 Sep 11.7 02:35:12 10° W 02:56:27 48° SE 03:02:32 10° ESE visible
03 Sep 11.6 05:09:18 23° WSW 05:13:40 30° SW 05:20:06 10° SSE visible
03 Sep 13.4 19:44:20 10° S 20:01:26 27° SE 20:17:23 10° E visible
03 Sep 12.7 22:03:42 10° SW 22:26:03 54° SSE 22:35:07 35° ESE visible
04 Sep 12.3 00:29:21 10° WSW 00:47:55 62° SW 00:47:55 62° SW visible
04 Sep 11.7 02:57:33 10° W 03:17:45 46° SSE 03:23:46 10° SE visible
04 Sep 11.9 05:30:37 18° WSW 05:34:33 22° SW 05:40:18 10° S visible
04 Sep 13.3 20:03:54 10° SSW 20:22:54 35° SE 20:40:20 10° E visible
04 Sep 12.6 22:25:03 10° SW 22:47:56 61° SSE 22:55:45 41° ESE visible
05 Sep 12.4 00:51:34 10° W 01:08:31 57° WSW 01:08:31 57° WSW visible
05 Sep 11.7 03:19:55 10° W 03:39:11 41° SSE 03:44:52 10° SE visible
05 Sep 12.2 05:52:03 13° WSW 05:55:19 15° SW 05:59:43 10° SSW visible
05 Sep 13.1 20:24:05 10° SSW 20:44:27 42° SE 21:02:48 10° E visible
05 Sep 12.5 22:46:41 10° WSW 23:09:55 66° SSE 23:16:08 50° ESE visible
06 Sep 12.6 01:13:52 10° W 01:28:54 50° WSW 01:28:54 50° WSW visible
06 Sep 11.8 04:00:42 35° S 04:00:42 35° S 04:05:47 10° SE visible
06 Sep 13.0 20:44:45 10° SW 21:06:07 49° SSE 21:23:37 14° E visible
06 Sep 12.3 23:08:33 10° WSW 23:31:56 70° S 23:36:22 59° ESE visible
07 Sep 12.8 01:36:13 10° W 01:49:06 42° WSW 01:49:06 42° WSW visible
07 Sep 12.0 04:22:14 27° S 04:22:14 27° S 04:26:25 10° SSE visible
07 Sep 12.9 21:05:46 10° SW 21:27:54 56° SSE 21:43:43 19° E visible
07 Sep 12.3 23:30:36 10° WSW 23:53:59 72° S 23:56:27 68° SE visible
08 Sep 13.0 01:58:35 10° W 02:09:10 34° W 02:09:10 34° W visible
08 Sep 12.3 04:43:45 20° SSW 04:43:45 20° SSW 04:46:40 10° S visible
08 Sep 12.8 21:27:06 10° SW 21:49:48 63° SSE 22:03:42 26° E visible
08 Sep 12.3 23:52:45 10° W 00:16:01 73° S 00:16:25 73° S visible
09 Sep 13.2 02:20:59 10° W 02:29:08 27° W 02:29:08 27° W visible
09 Sep 12.5 05:05:13 13° SSW 05:05:13 13° SSW 05:06:17 10° SSW visible
09 Sep 13.2 19:26:58 10° SSW 19:46:09 43° SE 20:06:13 10° E visible
09 Sep 12.7 21:48:41 10° WSW 22:11:49 68° SSE 22:23:35 33° E visible
10 Sep 12.3 00:15:00 10° W 00:36:18 69° SW 00:36:18 69° SW visible
10 Sep 13.3 02:43:28 10° W 02:49:01 21° W 02:49:01 21° W visible
10 Sep 13.1 19:47:38 10° SW 20:07:43 51° SSE 20:28:30 10° E visible
10 Sep 12.7 22:10:28 10° WSW 22:33:54 72° S 22:43:25 42° ESE visible
11 Sep 12.5 00:37:18 10° W 00:56:08 60° WSW 00:56:08 60° WSW visible
11 Sep 13.3 03:06:04 10° W 03:08:50 15° W 03:08:50 15° W visible
11 Sep 13.0 20:08:39 10° SW 20:29:26 58° SSE 20:50:29 10° E visible
11 Sep 12.6 22:32:25 10° WSW 22:56:02 74° S 23:03:12 52° ESE visible
12 Sep 12.7 00:59:38 10° W 01:15:54 50° WSW 01:15:54 50° WSW visible
12 Sep 12.9 20:29:56 10° SW 20:51:18 64° SSE 21:10:14 16° E visible
12 Sep 12.4 22:54:29 10° W 23:18:10 74° S 23:22:56 61° SE visible
